This demonstration page uses our WeatherBlox Daily Observations layout. Learn more.

Left ArrowRight Arrow

40.92945, -100.16068

Hourly Observations for August 8, 2020

Temp ( °F °C ) Dew Point ( °F °C ) Humidity (%) Winds ( mph kmh ) Pressure ( in mb ) Visibility ( mi km ) Precip ( " mm )
12:15 am 00:15 Clear 73 23 69 20.4 85 85 SE 6 9 29.78 1008 10 16.0934 0 0
12:35 am 00:35 Clear 73 22.5 69 20.3 87 87 ESE 6 9 29.78 1009 10 16.0934 0 0
12:55 am 00:55 Clear 73 22.5 69 20.3 87 87 ESE 5 7 29.79 1009 10 16.0934 0 0
1:15 am 01:15 Clear 72 22.4 68 20.2 87 87 E 5 7 29.79 1009 10 16.0934 0 0
1:35 am 01:35 Clear 69 20.4 67 19.5 95 95 E 5 7 29.81 1009 10 16.0934 0 0
1:55 am 01:55 Clear 68 19.9 66 19 95 95 ESE 3 6 29.81 1010 7 11.26538 0 0
2:15 am 02:15 Clear 67 19.4 66 18.8 96 96 ENE 3 6 29.82 1010 7 11.26538 0 0
2:35 am 02:35 Clear with Mist and Fog 67 19.5 66 18.9 96 96 E 6 9 29.82 1010 5 8.0467 0 0
2:55 am 02:55 Clear 66 19.1 65 18.6 97 97 E 3 6 29.82 1010 7 11.26538 0 0
3:15 am 03:15 Clear 68 20 67 19.6 98 98 ESE 7 11 29.81 1010 7 11.26538 0 0
3:35 am 03:35 Clear 69 20.4 68 19.9 97 97 ESE 7 11 29.81 1009 7 11.26538 0 0
3:55 am 03:55 Clear 69 20.5 68 19.8 96 96 ESE 6 9 29.8 1009 7 11.26538 0 0
4:15 am 04:15 Clear with Mist and Fog 69 20.3 68 19.8 97 97 ESE 7 11 29.79 1009 5 8.0467 0 0
4:35 am 04:35 Clear with Mist and Fog 69 20.5 68 20 97 97 ESE 7 11 29.8 1009 5 8.0467 0 0
4:55 am 04:55 Partly Cloudy with Mist and Fog 68 19.9 67 19.5 98 98 E 5 7 29.8 1009 3 4.82802 0 0
5:15 am 05:15 Mostly Cloudy with Mist and Fog 68 19.9 67 19.5 98 98 SSE 6 9 29.8 1009 3 4.82802 0 0
5:35 am 05:35 Cloudy with Fog 67 19.5 67 19.2 98 98 SE 5 7 29.82 1010 0.5 0.80467 0 0
5:55 am 05:55 Partly Cloudy with Mist and Fog 67 19.4 66 19 98 98 E 5 7 29.81 1009 3 4.82802 0 0
6:15 am 06:15 Partly Cloudy with Mist and Fog 67 19.4 66 19.1 98 98 E 6 9 29.81 1009 4 6.43736 0 0
6:35 am 06:35 Cloudy with Mist and Fog 67 19.4 66 19.1 98 98 ESE 6 9 29.83 1010 1.25 2.011675 0 0
6:55 am 06:55 Cloudy with Fog 67 19.5 67 19.2 98 98 ESE 5 7 29.83 1010 N/A 0 0
7:15 am 07:15 Cloudy with Fog 67 19.5 67 19.3 99 99 SE 6 9 29.84 1010 N/A 0 0
7:35 am 07:35 Cloudy with Fog 67 19.5 67 19.3 99 99 SE 5 7 29.84 1010 N/A 0 0
7:55 am 07:55 Cloudy with Fog 67 19.7 67 19.5 99 99 SE 3 6 29.83 1010 0.25 0.402335 0 0
8:15 am 08:15 Cloudy with Fog 68 19.9 67 19.6 98 98 S 3 6 29.83 1010 0.5 0.80467 0 0
8:35 am 08:35 Cloudy with Mist and Fog 69 20.6 69 20.4 99 99 S 5 7 29.84 1010 1.75 2.816345 0 0
8:55 am 08:55 Partly Cloudy with Mist and Fog 70 21 69 20.3 96 96 Calm 29.83 1010 5 8.0467 0 0
9:15 am 09:15 Sunny 72 22 69 20.6 92 92 SSE 3 6 29.83 1010 7 11.26538 0 0
9:35 am 09:35 Sunny 74 23.1 70 20.9 87 87 SE 5 7 29.82 1010 10 16.0934 0 0
9:55 am 09:55 Sunny 76 24.5 70 21.3 82 82 SSE 3 6 29.81 1010 10 16.0934 0 0
10:15 am 10:15 Sunny 77 25.1 71 21.6 81 81 SSE 7 11 29.8 1009 10 16.0934 0 0
10:35 am 10:35 Sunny 79 26.1 72 22.3 80 80 SSE 7 11 29.79 1009 10 16.0934 0 0
10:55 am 10:55 Sunny 81 27.4 72 22.2 73 73 SE 6 9 29.78 1008 10 16.0934 0 0
11:15 am 11:15 Sunny 83 28.3 72 22.4 70 70 Calm 29.79 1009 10 16.0934 0 0
11:35 am 11:35 Sunny 84 28.9 72 22.4 68 68 SSE 9 15 29.77 1008 10 16.0934 0 0
11:55 am 11:55 Sunny 85 29.7 73 22.5 65 65 SSE 8 13 29.77 1008 10 16.0934 0 0
12:15 pm 12:15 Sunny 87 30.6 72 22.3 61 61 SSE 12 19 29.75 1008 10 16.0934 0 0
12:35 pm 12:35 Sunny 89 31.4 73 22.7 60 60 SSE 12 19 29.74 1007 10 16.0934 0 0
12:55 pm 12:55 Sunny 89 31.9 72 22.4 57 57 S 10 17 29.73 1007 10 16.0934 0 0
1:15 pm 13:15 Sunny 90 32.1 73 23 59 59 S 9 15 29.74 1007 10 16.0934 0 0
1:35 pm 13:35 Sunny 91 32.9 71 21.9 52 52 S 8 13 29.73 1007 10 16.0934 0 0
1:55 pm 13:55 Sunny 91 33 72 22.4 54 54 S 7 11 29.74 1007 10 16.0934 0 0
2:15 pm 14:15 Sunny 92 33.1 73 22.6 54 54 SSW 5 7 29.74 1007 10 16.0934 0 0
2:35 pm 14:35 Sunny 92 33.1 74 23.4 57 57 SSW 7 11 29.74 1007 10 16.0934 0 0
2:55 pm 14:55 Sunny 92 33.4 73 22.6 53 53 W 3 6 29.74 1007 10 16.0934 0 0
3:15 pm 15:15 Sunny 92 33.4 74 23.1 55 55 Calm 29.73 1007 10 16.0934 0 0
3:35 pm 15:35 Sunny 92 33.3 74 23.3 56 56 S 3 6 29.73 1007 10 16.0934 0 0
3:55 pm 15:55 Sunny 92 33.3 74 23.3 56 56 Calm 29.72 1007 10 16.0934 0 0
4:15 pm 16:15 Partly Cloudy 95 34.8 73 22.9 50 50 SSE 9 15 29.71 1006 10 16.0934 0 0
4:35 pm 16:35 Partly Cloudy 94 34.7 73 22.7 50 50 S 10 17 29.71 1006 10 16.0934 0 0
4:55 pm 16:55 Sunny 94 34.3 74 23.2 52 52 SSE 13 20 29.72 1006 10 16.0934 0 0
5:15 pm 17:15 Sunny 93 34 75 24 56 56 SSE 10 17 29.71 1006 10 16.0934 0 0
5:35 pm 17:35 Sunny 93 33.9 75 23.9 56 56 SE 12 19 29.7 1006 10 16.0934 0 0
5:55 pm 17:55 Sunny 92 33.2 72 22.4 53 53 SSE 12 19 29.7 1006 10 16.0934 0 0
6:15 pm 18:15 Sunny 91 33 72 22 52 52 SSE 10 17 29.71 1006 10 16.0934 0 0
6:35 pm 18:35 Sunny 91 32.8 73 22.9 56 56 SSE 9 15 29.71 1006 10 16.0934 0 0
6:55 pm 18:55 Sunny 91 32.7 72 22 53 53 SE 9 15 29.71 1006 10 16.0934 0 0
7:15 pm 19:15 Sunny 90 32.2 72 22.4 56 56 SSE 8 13 29.7 1006 10 16.0934 0 0
7:35 pm 19:35 Sunny 88 31 73 23 62 62 SE 6 9 29.72 1006 10 16.0934 0 0
7:55 pm 19:55 Sunny 87 30.5 73 23 64 64 ESE 6 9 29.73 1007 10 16.0934 0 0
8:15 pm 20:15 Sunny 86 30 74 23.3 67 67 E 7 11 29.73 1007 10 16.0934 0 0
8:35 pm 20:35 Sunny 85 29.6 74 23.2 69 69 ESE 7 11 29.74 1007 10 16.0934 0 0
8:55 pm 20:55 Clear 85 29.2 74 23.5 71 71 ESE 8 13 29.75 1007 10 16.0934 0 0
9:15 pm 21:15 Clear 85 29.2 74 23.6 72 72 SE 8 13 29.76 1008 10 16.0934 0 0
9:35 pm 21:35 Clear 84 28.8 74 23.5 73 73 ESE 9 15 29.74 1007 10 16.0934 0 0
9:55 pm 21:55 Clear 85 29.6 71 21.5 62 62 SE 8 13 29.73 1007 10 16.0934 0 0
10:15 pm 22:15 Clear 83 28.3 69 20.3 62 62 SE 7 11 29.7 1006 10 16.0934 0 0
10:35 pm 22:35 Clear 82 28 68 20 62 62 Calm 29.72 1006 10 16.0934 0 0
10:55 pm 22:55 Clear 82 28 68 19.8 61 61 Calm 29.74 1007 10 16.0934 0 0
11:15 pm 23:15 Clear 78 25.8 70 21.2 76 76 NE 9 15 29.78 1009 10 16.0934 0 0
11:35 pm 23:35 Clear 78 25.7 70 21 75 75 NNE 8 13 29.8 1009 10 16.0934 0 0
11:55 pm 23:55 Clear 78 25.4 70 21.2 78 78 N 17 28 29.84 1010 10 16.0934 0 0

Powered by AerisWeather